Torna al catalogo

STARLINK-37469

AttivoComunicazioniVLEO
NORAD 69168·PAYLOAD·🇺🇸 United States

Lanciato May 21, 2026 da Cape Canaveral Space Force Station

Loading…

Prossimi Passaggi (prossime 24 ore)

TLE

AggiornatoSource: CelesTrak SupGP

Epoca: Sep 14, 2026, 23:07 UTC

1 69168C 26111W   26257.96368056  .00047617  00000+0  14069-2 0  2579
2 69168  53.1571  91.5142 0001348  81.0586 162.5821 15.34364973    11

Traccia STARLINK-37469 in tempo reale con AllMySat

Download on the App Store